DELTA 1 DEB, 3123

Orbit data source: Space-Track

DELTA 1 DEB, 3123 is space debris in SSO originally from a launch on Fri, 10 Nov 1967 UTC launched from the Air Force Western Test Range (AFWTR). Debris objects in space refer to the collection of defunct objects orbiting the Earth. Examples of debris include non-operational satellites, rocket bodies, and fragments generated from explosions, collisions, or faulty payload assembly.

Loading next visibility...
Identifier
3123, 1967-114D
Orbit
SSO
Country
Flag of USUS
Related business
Manufacturer
Unknown
Mission
Spacecraft
Bus & Motor
Unknown
Mass
Unknown
Launch date (UTC)
1967-11-10 (58 years ago)
Launch vehicle
Unknown
Launch site
Air Force Western Test Range (AFWTR)
Object type
Payload
Rocket body
Debris
Shape & HBR
Unknown shape, 0.1 m
Radar Cross Section
Small (<0.1 m²)

Expand to show TLE details & history
Last TLE update: 1 day ago

TLE from 1 day ago
0 DELTA 1 DEB
1 03123U 67114D   26125.31348453 -.00000022  00000-0  17522-3 0  9990
2 03123 102.4689 258.5517 0027990 340.7043  48.1962 12.48105634663416
Epoch: 2026-05-05T07:31Z
TLE epoch observation values (Epoch: 2026-05-05T07:31:25.063Z)
Latitude
28.43306°
Longitude
-84.33524°
Altitude
1,461 km
Speed
7.141 km/s
True Right ascension
16h 46m 50s
True Declination
28° 18' 08"
Sunlit
Object was in full shadow at epoch
Visualization orbit readout
Latitude
Unknown
Longitude
Unknown
Altitude
Unknown
Speed
Unknown
Apparent Right ascension
Unknown
Apparent Declination
Unknown
Sunlit
N/A
Visualization observer readout
Local Sidereal Time
20:39:37
Azimuth
Unknown
Elevation
Unknown
Doppler factor
Unknown
Orbital elements
Apogee altitude
1,491.988 km
Perigee altitude
1,448.054 km
Semi-major axis
7,848.158 km
Eccentricity
0.0028
Inclination
102.4689°
RAAN
258.5517°
Arg. of periapsis
340.7043°
True anomaly
48.43585°
Mean anomaly
48.1962°
Eccentric anomaly
48.31597°
Mean motion
3.1217 °/min
Orbital period
115.32 mins
BSTAR
0.00017522
Loading maneuver chart data...
Computing Atmospheric mass density...
Loading historical data...
Loading historical data...
Loading historical data...
Loading historical data...
Loading historical data...
Loading historical data...
Loading historical data...
Other satellites on launch #114 in the year 1967 (1967-11-10 UTC)

Documentation

Showing up to 5 results
|